Bagotville, Quebec

8:44 AM EDT on March 24, 2017 (GMT -0400)
Bagotville

Weather History for CYBG - April, 2013

Change the Weather History Date:

Sunday, April 28, 2013

  Actual Average Record
Temperature  
Mean Temperature 50 °F -  
Max Temperature 67 °F 59 °F 67 °F (2013)
Min Temperature 33 °F 36 °F 16 °F (2016)
Degree Days  
Heating Degree Days 15    
Moisture  
Dew Point 31 °F    
Average Humidity 49    
Maximum Humidity 87    
Minimum Humidity 19    
Precipitation  
Precipitation 0.00 in 0.10 in - ()
Sea Level Pressure  
Sea Level Pressure 30.26 in    
Wind  
Wind Speed 6 mph ()    
Max Wind Speed 14 mph    
Max Gust Speed -    
Visibility 15.0 miles    
Events      
Averages and records for this station are not official NWS values.
T = Trace of Precipitation, MM = Missing Value Source: Averaged Metar Reports

Daily Weather History Graph

Daily Weather History Graph

Search for Another Location

Airport or City:

Trip Planner

Search our weather history database for the weather conditions in past years. The results will help you decide how hot, cold, wet, or windy it might be!

Date:

Astronomy

Apr. 28, 2013 Rise Set
Actual Time 5:29 AM EDT 7:54 PM EDT
Civil Twilight 4:55 AM EDT 8:28 PM EDT
Nautical Twilight 4:11 AM EDT 9:12 PM EDT
Astronomical Twilight 3:22 AM EDT 10:02 PM EDT
Moon 11:30 PM EDT (4/28) 7:34 AM EDT (4/28)
Length of Visible Light 15h 33m
Length of Day
14h 24m
Waning Gibbous, 89% of the Moon is Illuminated
Apr 28
Waning Gibbous
May 2
Last Quarter
May 9
New
May 18
First Quarter
May 25
Full

Hourly Weather History & Observations

Time (EDT) Temp. Windchill Dew Point Humidity Pressure Visibility Wind Dir Wind Speed Gust Speed Precip Events Conditions
12:00 AM 41.0 °F - 28.4 °F 61% 30.31 in 15.0 mi South 2.3 mph - N/A   Clear
1:00 AM 39.2 °F 35.9 °F 28.4 °F 65% 30.32 in 15.0 mi SSE 4.6 mph - N/A   Clear
2:00 AM 38 °F - 29 °F 58% 30.31 in 15 mi East 6.9 mph - -  
2:00 AM 39.2 °F 34.2 °F 28.4 °F 65% 30.31 in 15.0 mi ESE 6.9 mph - N/A   Clear
3:00 AM 35.6 °F 30.7 °F 30.2 °F 81% 30.31 in 15.0 mi ESE 5.8 mph - N/A   Partly Cloudy
4:00 AM 35.6 °F 32.8 °F 28.4 °F 75% 30.31 in 15.0 mi ESE 3.5 mph - N/A   Clear
5:00 AM 35.6 °F 30.7 °F 26.6 °F 70% 30.30 in 15.0 mi SE 5.8 mph - N/A   Partly Cloudy
6:00 AM 33.8 °F 28.6 °F 28.4 °F 81% 30.30 in 25.0 mi ESE 5.8 mph - N/A   Partly Cloudy
7:00 AM 35.6 °F 31.7 °F 32.0 °F 87% 30.30 in 25.0 mi East 4.6 mph - N/A   Partly Cloudy
8:00 AM 40 °F - 31 °F 61% 30.32 in 25 mi East 4.6 mph - -   Clear
8:00 AM 41.0 °F 38.0 °F 32.0 °F 70% 30.32 in 25.0 mi East 4.6 mph - N/A   Partly Cloudy
9:00 AM 48.2 °F - 32.0 °F 54% 30.32 in 25.0 mi East 3.5 mph - N/A   Scattered Clouds
10:00 AM 53.6 °F - 32.0 °F 44% 30.31 in 25.0 mi East 5.8 mph - N/A   Scattered Clouds
11:00 AM 57.2 °F - 32.0 °F 38% 30.30 in 25.0 mi East 5.8 mph - N/A   Mostly Cloudy
12:00 PM 60.8 °F - 32.0 °F 34% 30.27 in 25.0 mi NE 10.4 mph - N/A   Mostly Cloudy
1:00 PM 64.4 °F - 35.6 °F 34% 30.26 in 25.0 mi NNW 6.9 mph - N/A   Mostly Cloudy
2:00 PM 64 °F - 32 °F 19% 30.25 in 25 mi ENE 5.8 mph - -   Scattered Clouds
2:00 PM 64.4 °F - 32.0 °F 30% 30.25 in 25.0 mi East 8.1 mph - N/A   Mostly Cloudy
3:00 PM 64.4 °F - 32.0 °F 30% 30.22 in 25.0 mi East 10.4 mph - N/A   Scattered Clouds
4:00 PM 66.2 °F - 30.2 °F 26% 30.19 in 25.0 mi ENE 10.4 mph - N/A   Mostly Cloudy
5:00 PM 66.2 °F - 32.0 °F 28% 30.18 in 25.0 mi East 11.5 mph - N/A   Mostly Cloudy
6:00 PM 64.4 °F - 32.0 °F 30% 30.17 in 25.0 mi East 13.8 mph - N/A   Scattered Clouds
7:00 PM 60.8 °F - 32.0 °F 34% 30.17 in 25.0 mi East 11.5 mph - N/A   Partly Cloudy
8:00 PM 59 °F - 30 °F 21% 30.17 in 25 mi East 11.5 mph - -   Scattered Clouds
8:00 PM 59.0 °F - 30.2 °F 34% 30.17 in 25.0 mi East 11.5 mph - N/A   Partly Cloudy
9:00 PM 53.6 °F - 32.0 °F 44% 30.17 in 15.0 mi East 10.4 mph - N/A   Partly Cloudy
10:00 PM 50.0 °F - 30.2 °F 47% 30.18 in 15.0 mi ESE 6.9 mph - N/A   Clear
11:00 PM 46.4 °F 42.9 °F 32.0 °F 57% 30.18 in 15.0 mi East 6.9 mph - N/A   Clear